Year,Month,Day,Hour,Minute,Value (Times are PST for temperature in C)
2015,06,30,00,00,24.20
2015,06,30,00,01,24.20
2015,06,30,00,02,24.20
2015,06,30,00,03,24.20
2015,06,30,00,04,24.20
2015,06,30,00,05,24.20
2015,06,30,00,06,24.20
2015,06,30,00,07,24.20
2015,06,30,00,08,24.20
2015,06,30,00,09,24.20
2015,06,30,00,10,24.10
2015,06,30,00,11,24.10
2015,06,30,00,12,24.10
2015,06,30,00,13,24.10
2015,06,30,00,14,24.10
2015,06,30,00,15,24.10
2015,06,30,00,16,24.10
2015,06,30,00,17,24.10
2015,06,30,00,18,24.10
2015,06,30,00,19,24.10
2015,06,30,00,20,24.10
2015,06,30,00,21,24.10
2015,06,30,00,22,24.00
2015,06,30,00,23,24.00
2015,06,30,00,24,24.00
2015,06,30,00,25,24.00
2015,06,30,00,26,24.00
2015,06,30,00,27,24.00
2015,06,30,00,28,23.90
2015,06,30,00,29,23.90
2015,06,30,00,30,23.90
2015,06,30,00,31,23.90
2015,06,30,00,32,23.90
2015,06,30,00,33,23.80
2015,06,30,00,34,23.80
2015,06,30,00,35,23.80
2015,06,30,00,36,23.80
2015,06,30,00,37,23.70
2015,06,30,00,38,23.70
2015,06,30,00,39,23.70
2015,06,30,00,40,23.60
2015,06,30,00,41,23.60
2015,06,30,00,42,23.60
2015,06,30,00,43,23.60
2015,06,30,00,44,23.60
2015,06,30,00,45,23.60
2015,06,30,00,46,23.60
2015,06,30,00,47,23.60
2015,06,30,00,48,23.50
2015,06,30,00,49,23.50
2015,06,30,00,50,23.50
2015,06,30,00,51,23.50
2015,06,30,00,52,23.50
2015,06,30,00,53,23.40
2015,06,30,00,54,23.40
2015,06,30,00,55,23.40
2015,06,30,00,56,23.40
2015,06,30,00,57,23.40
2015,06,30,00,58,23.40
2015,06,30,00,59,23.40
2015,06,30,01,00,23.40
2015,06,30,01,01,23.30
2015,06,30,01,02,23.30
2015,06,30,01,03,23.30
2015,06,30,01,04,23.30
2015,06,30,01,05,23.30
2015,06,30,01,06,23.30
2015,06,30,01,07,23.30
2015,06,30,01,08,23.30
2015,06,30,01,09,23.20
2015,06,30,01,10,23.20
2015,06,30,01,11,23.20
2015,06,30,01,12,23.20
2015,06,30,01,13,23.20
2015,06,30,01,14,23.10
2015,06,30,01,15,23.10
2015,06,30,01,16,23.10
2015,06,30,01,17,23.10
2015,06,30,01,18,23.10
2015,06,30,01,19,23.10
2015,06,30,01,20,23.10
2015,06,30,01,21,23.00
2015,06,30,01,22,23.00
2015,06,30,01,23,22.90
2015,06,30,01,24,22.90
2015,06,30,01,25,22.90
2015,06,30,01,26,22.80
2015,06,30,01,27,22.80
2015,06,30,01,28,22.80
2015,06,30,01,29,22.80
2015,06,30,01,30,22.70
2015,06,30,01,31,22.70
2015,06,30,01,32,22.60
2015,06,30,01,33,22.60
2015,06,30,01,34,22.60
2015,06,30,01,35,22.50
2015,06,30,01,36,22.50
2015,06,30,01,37,22.50
2015,06,30,01,38,22.50
2015,06,30,01,39,22.50
2015,06,30,01,40,22.40
2015,06,30,01,41,22.40
2015,06,30,01,42,22.40
2015,06,30,01,43,22.40
2015,06,30,01,44,22.40
2015,06,30,01,45,22.40
2015,06,30,01,46,22.30
2015,06,30,01,47,22.30
2015,06,30,01,48,22.30
2015,06,30,01,49,22.30
2015,06,30,01,50,22.30
2015,06,30,01,51,22.30
2015,06,30,01,52,22.20
2015,06,30,01,53,22.20
2015,06,30,01,54,22.20
2015,06,30,01,55,22.20
2015,06,30,01,56,22.20
2015,06,30,01,57,22.20
2015,06,30,01,58,22.10
2015,06,30,01,59,22.10
2015,06,30,02,00,22.10
2015,06,30,02,01,22.10
2015,06,30,02,02,22.10
2015,06,30,02,03,22.10
2015,06,30,02,04,22.00
2015,06,30,02,05,22.00
2015,06,30,02,06,22.00
2015,06,30,02,07,21.90
2015,06,30,02,08,21.90
2015,06,30,02,09,21.90
2015,06,30,02,10,21.90
2015,06,30,02,11,21.80
2015,06,30,02,12,21.80
2015,06,30,02,13,21.80
2015,06,30,02,14,21.80
2015,06,30,02,15,21.80
2015,06,30,02,16,21.80
2015,06,30,02,17,21.80
2015,06,30,02,18,21.80
2015,06,30,02,19,21.80
2015,06,30,02,20,21.70
2015,06,30,02,21,21.70
2015,06,30,02,22,21.70
2015,06,30,02,23,21.70
2015,06,30,02,24,21.70
2015,06,30,02,25,21.60
2015,06,30,02,26,21.60
2015,06,30,02,27,21.60
2015,06,30,02,28,21.60
2015,06,30,02,29,21.60
2015,06,30,02,30,21.60
2015,06,30,02,31,21.60
2015,06,30,02,32,21.60
2015,06,30,02,33,21.60
2015,06,30,02,34,21.60
2015,06,30,02,35,21.50
2015,06,30,02,36,21.50
2015,06,30,02,37,21.50
2015,06,30,02,38,21.50
2015,06,30,02,39,21.40
2015,06,30,02,40,21.40
2015,06,30,02,41,21.40
2015,06,30,02,42,21.40
2015,06,30,02,43,21.30
2015,06,30,02,44,21.30
2015,06,30,02,45,21.30
2015,06,30,02,46,21.30
2015,06,30,02,47,21.30
2015,06,30,02,48,21.20
2015,06,30,02,49,21.20
2015,06,30,02,50,21.20
2015,06,30,02,51,21.20
2015,06,30,02,52,21.20
2015,06,30,02,53,21.20
2015,06,30,02,54,21.10
2015,06,30,02,55,21.10
2015,06,30,02,56,21.10
2015,06,30,02,57,21.10
2015,06,30,02,58,21.10
2015,06,30,02,59,21.10
2015,06,30,03,00,21.10
2015,06,30,03,01,21.10
2015,06,30,03,02,21.10
2015,06,30,03,06,20.90
2015,06,30,03,07,20.90
2015,06,30,03,08,20.90
2015,06,30,03,09,20.90
2015,06,30,03,10,20.90
2015,06,30,03,11,20.90
2015,06,30,03,12,20.90
2015,06,30,03,13,20.90
2015,06,30,03,14,20.80
2015,06,30,03,15,20.80
2015,06,30,03,16,20.80
2015,06,30,03,17,20.80
2015,06,30,03,18,20.80
2015,06,30,03,19,20.80
2015,06,30,03,20,20.80
2015,06,30,03,21,20.70
2015,06,30,03,22,20.70
2015,06,30,03,23,20.70
2015,06,30,03,24,20.70
2015,06,30,03,25,20.70
2015,06,30,03,26,20.70
2015,06,30,03,27,20.70
2015,06,30,03,28,20.60
2015,06,30,03,29,20.60
2015,06,30,03,30,20.60
2015,06,30,03,31,20.60
2015,06,30,03,32,20.50
2015,06,30,03,33,20.50
2015,06,30,03,34,20.50
2015,06,30,03,35,20.40
2015,06,30,03,36,20.40
2015,06,30,03,37,20.40
2015,06,30,03,38,20.40
2015,06,30,03,39,20.40
2015,06,30,03,40,20.40
2015,06,30,03,41,20.40
2015,06,30,03,42,20.30
2015,06,30,03,43,20.30
2015,06,30,03,44,20.30
2015,06,30,03,45,20.30
2015,06,30,03,46,20.30
2015,06,30,03,47,20.30
2015,06,30,03,48,20.30
2015,06,30,03,49,20.30
2015,06,30,03,50,20.30
2015,06,30,03,51,20.20
2015,06,30,03,52,20.20
2015,06,30,03,53,20.20
2015,06,30,03,54,20.20
2015,06,30,03,55,20.20
2015,06,30,03,56,20.20
2015,06,30,03,57,20.20
2015,06,30,03,58,20.20
2015,06,30,03,59,20.20
2015,06,30,04,00,20.10
2015,06,30,04,01,20.10
2015,06,30,04,02,20.10
2015,06,30,04,03,20.00
2015,06,30,04,04,20.00
2015,06,30,04,05,20.00
2015,06,30,04,06,20.00
2015,06,30,04,07,20.00
2015,06,30,04,08,19.90
2015,06,30,04,09,19.90
2015,06,30,04,10,19.90
2015,06,30,04,11,19.90
2015,06,30,04,12,19.90
2015,06,30,04,13,19.90
2015,06,30,04,14,19.80
2015,06,30,04,15,19.80
2015,06,30,04,16,19.80
2015,06,30,04,17,19.80
2015,06,30,04,18,19.80
2015,06,30,04,19,19.80
2015,06,30,04,20,19.80
2015,06,30,04,21,19.80
2015,06,30,04,22,19.70
2015,06,30,04,23,19.70
2015,06,30,04,24,19.70
2015,06,30,04,25,19.70
2015,06,30,04,26,19.70
2015,06,30,04,27,19.60
2015,06,30,04,28,19.60
2015,06,30,04,29,19.60
2015,06,30,04,30,19.60
2015,06,30,04,31,19.60
2015,06,30,04,32,19.50
2015,06,30,04,33,19.50
2015,06,30,04,34,19.50
2015,06,30,04,35,19.50
2015,06,30,04,36,19.50
2015,06,30,04,37,19.40
2015,06,30,04,38,19.40
2015,06,30,04,39,19.40
2015,06,30,04,40,19.40
2015,06,30,04,41,19.40
2015,06,30,04,42,19.40
2015,06,30,04,43,19.40
2015,06,30,04,44,19.40
2015,06,30,04,45,19.30
2015,06,30,04,46,19.30
2015,06,30,04,47,19.30
2015,06,30,04,48,19.30
2015,06,30,04,49,19.30
2015,06,30,04,50,19.30
2015,06,30,04,51,19.20
2015,06,30,04,52,19.20
2015,06,30,04,53,19.20
2015,06,30,04,54,19.20
2015,06,30,04,55,19.20
2015,06,30,04,56,19.10
2015,06,30,04,57,19.10
2015,06,30,04,58,19.10
2015,06,30,04,59,19.10
2015,06,30,05,00,19.10
2015,06,30,05,01,19.10
2015,06,30,05,02,19.00
2015,06,30,05,03,19.00
2015,06,30,05,04,19.00
2015,06,30,05,05,18.90
2015,06,30,05,06,18.90
2015,06,30,05,07,18.90
2015,06,30,05,08,18.90
2015,06,30,05,09,18.90
2015,06,30,05,10,18.90
2015,06,30,05,11,18.90
2015,06,30,05,12,18.80
2015,06,30,05,13,18.80
2015,06,30,05,14,18.80
2015,06,30,05,15,18.80
2015,06,30,05,16,18.80
2015,06,30,05,17,18.80
2015,06,30,05,18,18.80
2015,06,30,05,19,18.80
2015,06,30,05,20,18.80
2015,06,30,05,21,18.80
2015,06,30,05,22,18.80
2015,06,30,05,23,18.80
2015,06,30,05,24,18.80
2015,06,30,05,25,18.80
2015,06,30,05,26,18.80
2015,06,30,05,27,18.80
2015,06,30,05,28,18.80
2015,06,30,05,29,18.80
2015,06,30,05,30,18.80
2015,06,30,05,31,18.80
2015,06,30,05,32,18.80
2015,06,30,05,33,18.70
2015,06,30,05,34,18.70
2015,06,30,05,35,18.70
2015,06,30,05,36,18.70
2015,06,30,05,37,18.70
2015,06,30,05,38,18.70
2015,06,30,05,39,18.70
2015,06,30,05,40,18.70
2015,06,30,05,41,18.70
2015,06,30,05,42,18.70
2015,06,30,05,43,18.70
2015,06,30,05,44,18.70
2015,06,30,05,45,18.70
2015,06,30,05,46,18.70
2015,06,30,05,47,18.70
2015,06,30,05,48,18.70
2015,06,30,05,49,18.70
2015,06,30,05,50,18.70
2015,06,30,05,51,18.70
2015,06,30,05,52,18.70
2015,06,30,05,53,18.70
2015,06,30,05,54,18.70
2015,06,30,05,55,18.70
2015,06,30,05,56,18.70
2015,06,30,05,57,18.70
2015,06,30,05,58,18.70
2015,06,30,05,59,18.70
2015,06,30,06,00,18.70
2015,06,30,06,01,18.80
2015,06,30,06,02,18.80
2015,06,30,06,03,18.80
2015,06,30,06,04,18.80
2015,06,30,06,05,18.80
2015,06,30,06,06,18.80
2015,06,30,06,07,18.80
2015,06,30,06,08,18.80
2015,06,30,06,09,18.80
2015,06,30,06,10,18.90
2015,06,30,06,11,18.90
2015,06,30,06,12,18.90
2015,06,30,06,13,18.90
2015,06,30,06,14,18.90
2015,06,30,06,15,19.00
2015,06,30,06,16,19.00
2015,06,30,06,17,19.00
2015,06,30,06,18,19.00
2015,06,30,06,19,19.10
2015,06,30,06,20,19.10
2015,06,30,06,21,19.10
2015,06,30,06,22,19.10
2015,06,30,06,23,19.10
2015,06,30,06,24,19.10
2015,06,30,06,25,19.10
2015,06,30,06,26,19.10
2015,06,30,06,27,19.20
2015,06,30,06,28,19.20
2015,06,30,06,29,19.20
2015,06,30,06,30,19.20
2015,06,30,06,31,19.20
2015,06,30,06,32,19.20
2015,06,30,06,33,19.20
2015,06,30,06,34,19.20
2015,06,30,06,35,19.20
2015,06,30,06,36,19.30
2015,06,30,06,37,19.30
2015,06,30,06,38,19.30
2015,06,30,06,39,19.30
2015,06,30,06,40,19.30
2015,06,30,06,41,19.30
2015,06,30,06,42,19.40
2015,06,30,06,43,19.40
2015,06,30,06,44,19.40
2015,06,30,06,45,19.40
2015,06,30,06,46,19.40
2015,06,30,06,47,19.40
2015,06,30,06,48,19.50
2015,06,30,06,49,19.50
2015,06,30,06,50,19.60
2015,06,30,06,51,19.60
2015,06,30,06,52,19.60
2015,06,30,06,53,19.60
2015,06,30,06,54,19.60
2015,06,30,06,55,19.70
2015,06,30,06,56,19.70
2015,06,30,06,57,19.70
2015,06,30,06,58,19.80
2015,06,30,06,59,19.80
2015,06,30,07,00,19.80
2015,06,30,07,01,19.80
2015,06,30,07,02,19.80
2015,06,30,07,03,19.80
2015,06,30,07,04,19.80
2015,06,30,07,05,19.80
2015,06,30,07,06,19.70
2015,06,30,07,07,19.70
2015,06,30,07,08,19.70
2015,06,30,07,09,19.70
2015,06,30,07,10,19.70
2015,06,30,07,11,19.70
2015,06,30,07,12,19.80
2015,06,30,07,13,19.80
2015,06,30,07,14,19.80
2015,06,30,07,15,19.80
2015,06,30,07,16,19.80
2015,06,30,07,17,19.90
2015,06,30,07,18,19.90
2015,06,30,07,19,19.90
2015,06,30,07,20,20.00
2015,06,30,07,21,20.00
2015,06,30,07,22,20.00
2015,06,30,07,23,20.10
2015,06,30,07,24,20.20
2015,06,30,07,25,20.30
2015,06,30,07,26,20.30
2015,06,30,07,27,20.30
2015,06,30,07,28,20.30
2015,06,30,07,29,20.20
2015,06,30,07,30,20.20
2015,06,30,07,31,20.20
2015,06,30,07,32,20.10
2015,06,30,07,33,20.10
2015,06,30,07,34,20.20
2015,06,30,07,35,20.20
2015,06,30,07,36,20.20
2015,06,30,07,37,20.20
2015,06,30,07,38,20.20
2015,06,30,07,39,20.20
2015,06,30,07,40,20.20
2015,06,30,07,41,20.30
2015,06,30,07,42,20.30
2015,06,30,07,43,20.30
2015,06,30,07,44,20.40
2015,06,30,07,45,20.40
2015,06,30,07,46,20.40
2015,06,30,07,47,20.30
2015,06,30,07,48,20.30
2015,06,30,07,49,20.30
2015,06,30,07,50,20.30
2015,06,30,07,51,20.30
2015,06,30,07,52,20.30
2015,06,30,07,53,20.30
2015,06,30,07,54,20.30
2015,06,30,07,55,20.30
2015,06,30,07,56,20.30
2015,06,30,07,57,20.30
2015,06,30,07,58,20.40
2015,06,30,07,59,20.40
2015,06,30,08,00,20.50
2015,06,30,08,01,20.60
2015,06,30,08,02,20.60
2015,06,30,08,03,20.60
2015,06,30,08,04,20.70
2015,06,30,08,05,20.80
2015,06,30,08,06,20.80
2015,06,30,08,07,20.80
2015,06,30,08,08,20.80
2015,06,30,08,09,20.80
2015,06,30,08,10,20.80
2015,06,30,08,11,20.80
2015,06,30,08,12,20.80
2015,06,30,08,13,20.80
2015,06,30,08,14,20.70
2015,06,30,08,15,20.80
2015,06,30,08,16,20.70
2015,06,30,08,17,20.70
2015,06,30,08,18,20.70
2015,06,30,08,19,20.60
2015,06,30,08,20,20.60
2015,06,30,08,21,20.50
2015,06,30,08,22,20.50
2015,06,30,08,23,20.50
2015,06,30,08,24,20.60
2015,06,30,08,25,20.60
2015,06,30,08,26,20.60
2015,06,30,08,27,20.60
2015,06,30,08,28,20.60
2015,06,30,08,29,20.60
2015,06,30,08,30,20.50
2015,06,30,08,31,20.50
2015,06,30,08,32,20.60
2015,06,30,08,33,20.60
2015,06,30,08,34,20.60
2015,06,30,08,35,20.50
2015,06,30,08,36,20.50
2015,06,30,08,37,20.50
2015,06,30,08,38,20.60
2015,06,30,08,39,20.60
2015,06,30,08,40,20.60
2015,06,30,08,41,20.70
2015,06,30,08,42,20.70
2015,06,30,08,43,20.80
2015,06,30,08,44,20.80
2015,06,30,08,45,20.80
2015,06,30,08,46,20.80
2015,06,30,08,47,20.80
2015,06,30,08,48,20.80
2015,06,30,08,49,20.90
2015,06,30,08,50,21.00
2015,06,30,08,51,21.00
2015,06,30,08,52,20.90
2015,06,30,08,53,20.90
2015,06,30,08,54,20.90
2015,06,30,08,55,20.80
2015,06,30,08,56,20.80
2015,06,30,08,57,20.80
2015,06,30,08,58,20.90
2015,06,30,08,59,20.90
2015,06,30,09,00,21.00
2015,06,30,09,01,21.10
2015,06,30,09,02,21.20
2015,06,30,09,03,21.20
2015,06,30,09,04,21.20
2015,06,30,09,05,21.20
2015,06,30,09,06,21.20
2015,06,30,09,07,21.20
2015,06,30,09,08,21.30
2015,06,30,09,09,21.30
2015,06,30,09,10,21.40
2015,06,30,09,11,21.40
2015,06,30,09,12,21.40
2015,06,30,09,13,21.30
2015,06,30,09,14,21.30
2015,06,30,09,15,21.30
2015,06,30,09,16,21.30
2015,06,30,09,17,21.30
2015,06,30,09,18,21.40
2015,06,30,09,19,21.40
2015,06,30,09,20,21.50
2015,06,30,09,21,21.60
2015,06,30,09,22,21.60
2015,06,30,09,23,21.60
2015,06,30,09,24,21.70
2015,06,30,09,25,21.70
2015,06,30,09,26,21.80
2015,06,30,09,27,21.80
2015,06,30,09,28,21.80
2015,06,30,09,29,21.80
2015,06,30,09,30,21.80
2015,06,30,09,31,21.80
2015,06,30,09,32,21.80
2015,06,30,09,33,21.80
2015,06,30,09,34,21.80
2015,06,30,09,35,21.80
2015,06,30,09,36,21.80
2015,06,30,09,37,21.90
2015,06,30,09,38,21.80
2015,06,30,09,39,21.80
2015,06,30,09,40,21.90
2015,06,30,09,41,22.00
2015,06,30,09,42,22.00
2015,06,30,09,43,22.00
2015,06,30,09,44,21.90
2015,06,30,09,45,21.80
2015,06,30,09,46,21.90
2015,06,30,09,47,21.80
2015,06,30,09,48,21.80
2015,06,30,09,49,21.80
2015,06,30,09,50,21.70
2015,06,30,09,51,21.70
2015,06,30,09,52,21.70
2015,06,30,09,53,21.70
2015,06,30,09,54,21.60
2015,06,30,09,55,21.60
2015,06,30,09,56,21.60
2015,06,30,09,57,21.60
2015,06,30,09,58,21.60
2015,06,30,09,59,21.60
2015,06,30,10,00,21.70
2015,06,30,10,01,21.80
2015,06,30,10,02,21.90
2015,06,30,10,03,22.00
2015,06,30,10,04,22.00
2015,06,30,10,05,22.10
2015,06,30,10,06,22.10
2015,06,30,10,07,22.20
2015,06,30,10,08,22.20
2015,06,30,10,09,22.10
2015,06,30,10,10,22.10
2015,06,30,10,11,22.10
2015,06,30,10,12,22.10
2015,06,30,10,13,22.00
2015,06,30,10,14,21.80
2015,06,30,10,15,21.70
2015,06,30,10,16,21.60
2015,06,30,10,17,21.60
2015,06,30,10,18,21.70
2015,06,30,10,19,21.80
2015,06,30,10,20,21.80
2015,06,30,10,21,21.80
2015,06,30,10,22,21.80
2015,06,30,10,23,21.80
2015,06,30,10,24,21.90
2015,06,30,10,25,22.00
2015,06,30,10,26,22.00
2015,06,30,10,27,22.10
2015,06,30,10,28,22.20
2015,06,30,10,29,22.20
2015,06,30,10,30,22.30
2015,06,30,10,31,22.30
2015,06,30,10,32,22.30
2015,06,30,10,33,22.30
2015,06,30,10,34,22.30
2015,06,30,10,35,22.20
2015,06,30,10,36,22.30
2015,06,30,10,37,22.30
2015,06,30,10,38,22.40
2015,06,30,10,39,22.40
2015,06,30,10,40,22.40
2015,06,30,10,41,22.40
2015,06,30,10,42,22.40
2015,06,30,10,43,22.40
2015,06,30,10,44,22.40
2015,06,30,10,45,22.30
2015,06,30,10,46,22.30
2015,06,30,10,47,22.30
2015,06,30,10,48,22.20
2015,06,30,10,49,22.30
2015,06,30,10,50,22.30
2015,06,30,10,51,22.30
2015,06,30,10,52,22.40
2015,06,30,10,53,22.50
2015,06,30,10,54,22.50
2015,06,30,10,55,22.50
2015,06,30,10,56,22.40
2015,06,30,10,57,22.40
2015,06,30,10,58,22.40
2015,06,30,10,59,22.50
2015,06,30,11,00,22.60
2015,06,30,11,01,22.70
2015,06,30,11,02,22.70
2015,06,30,11,03,22.80
2015,06,30,11,04,22.80
2015,06,30,11,05,22.80
2015,06,30,11,06,22.80
2015,06,30,11,07,22.80
2015,06,30,11,08,22.80
2015,06,30,11,09,22.80
2015,06,30,11,10,22.80
2015,06,30,11,11,22.90
2015,06,30,11,12,23.00
2015,06,30,11,13,23.10
2015,06,30,11,14,23.20
2015,06,30,11,15,23.20
2015,06,30,11,16,23.10
2015,06,30,11,17,22.90
2015,06,30,11,18,22.80
2015,06,30,11,19,22.70
2015,06,30,11,20,22.60
2015,06,30,11,21,22.50
2015,06,30,11,22,22.50
2015,06,30,11,23,22.50
2015,06,30,11,24,22.50
2015,06,30,11,25,22.60
2015,06,30,11,26,22.60
2015,06,30,11,27,22.70
2015,06,30,11,28,22.70
2015,06,30,11,29,22.80
2015,06,30,11,30,22.70
2015,06,30,11,31,22.80
2015,06,30,11,32,22.90
2015,06,30,11,33,22.90
2015,06,30,11,34,23.00
2015,06,30,11,35,23.10
2015,06,30,11,36,23.20
2015,06,30,11,37,23.20
2015,06,30,11,38,23.20
2015,06,30,11,39,23.20
2015,06,30,11,40,23.20
2015,06,30,11,41,23.20
2015,06,30,11,42,23.20
2015,06,30,11,43,23.30
2015,06,30,11,44,23.20
2015,06,30,11,45,23.10
2015,06,30,11,46,22.90
2015,06,30,11,47,22.80
2015,06,30,11,48,22.80
2015,06,30,11,49,22.80
2015,06,30,11,50,22.70
2015,06,30,11,51,22.60
2015,06,30,11,52,22.50
2015,06,30,11,53,22.40
2015,06,30,11,54,22.40
2015,06,30,11,55,22.40
2015,06,30,11,56,22.50
2015,06,30,11,57,22.60
2015,06,30,11,58,22.80
2015,06,30,11,59,22.80
2015,06,30,12,00,22.90
2015,06,30,12,01,22.80
2015,06,30,12,02,22.70
2015,06,30,12,03,22.70
2015,06,30,12,04,22.70
2015,06,30,12,05,22.70
2015,06,30,12,06,22.70
2015,06,30,12,07,22.70
2015,06,30,12,08,22.60
2015,06,30,12,09,22.60
2015,06,30,12,10,22.60
2015,06,30,12,11,22.60
2015,06,30,12,12,22.60
2015,06,30,12,13,22.60
2015,06,30,12,14,22.60
2015,06,30,12,15,22.70
2015,06,30,12,16,22.70
2015,06,30,12,17,22.70
2015,06,30,12,18,22.80
2015,06,30,12,19,22.80
2015,06,30,12,20,22.70
2015,06,30,12,21,22.70
2015,06,30,12,22,22.80
2015,06,30,12,23,22.90
2015,06,30,12,24,22.90
2015,06,30,12,25,23.00
2015,06,30,12,26,23.10
2015,06,30,12,27,23.10
2015,06,30,12,28,23.20
2015,06,30,12,29,23.10
2015,06,30,12,30,23.10
2015,06,30,12,31,23.10
2015,06,30,12,32,23.20
2015,06,30,12,33,23.20
2015,06,30,12,34,23.40
2015,06,30,12,35,23.40
2015,06,30,12,36,23.40
2015,06,30,12,37,23.40
2015,06,30,12,38,23.40
2015,06,30,12,39,23.40
2015,06,30,12,40,23.40
2015,06,30,12,41,23.40
2015,06,30,12,42,23.40
2015,06,30,12,43,23.50
2015,06,30,12,44,23.60
2015,06,30,12,45,23.60
2015,06,30,12,46,23.60
2015,06,30,12,47,23.60
2015,06,30,12,48,23.60
2015,06,30,12,49,23.60
2015,06,30,12,50,23.70
2015,06,30,12,51,23.80
2015,06,30,12,52,23.80
2015,06,30,12,53,23.90
2015,06,30,12,54,24.00
2015,06,30,12,55,24.00
2015,06,30,12,56,24.00
2015,06,30,12,57,24.00
2015,06,30,12,58,24.10
2015,06,30,12,59,24.10
2015,06,30,13,00,24.20
2015,06,30,13,01,24.20
2015,06,30,13,02,24.20
2015,06,30,13,03,24.20
2015,06,30,13,04,24.20
2015,06,30,13,05,24.20
2015,06,30,13,06,24.20
2015,06,30,13,07,24.00
2015,06,30,13,08,23.90
2015,06,30,13,09,23.80
2015,06,30,13,10,23.70
2015,06,30,13,11,23.70
2015,06,30,13,12,23.70
2015,06,30,13,13,23.80
2015,06,30,13,14,23.80
2015,06,30,13,15,23.90
2015,06,30,13,16,23.90
2015,06,30,13,17,23.90
2015,06,30,13,18,23.90
2015,06,30,13,19,23.90
2015,06,30,13,20,23.90
2015,06,30,13,21,23.90
2015,06,30,13,22,23.90
2015,06,30,13,23,23.90
2015,06,30,13,24,23.90
2015,06,30,13,25,24.00
2015,06,30,13,26,24.10
2015,06,30,13,27,24.10
2015,06,30,13,28,24.10
2015,06,30,13,29,24.20
2015,06,30,13,30,24.30
2015,06,30,13,31,24.40
2015,06,30,13,32,24.30
2015,06,30,13,33,24.10
2015,06,30,13,34,23.90
2015,06,30,13,35,23.80
2015,06,30,13,36,23.70
2015,06,30,13,37,23.70
2015,06,30,13,38,23.70
2015,06,30,13,39,23.70
2015,06,30,13,40,23.80
2015,06,30,13,41,23.80
2015,06,30,13,42,23.80
2015,06,30,13,43,23.80
2015,06,30,13,44,23.90
2015,06,30,13,45,23.90
2015,06,30,13,46,24.00
2015,06,30,13,47,24.00
2015,06,30,13,48,23.90
2015,06,30,13,49,23.80
2015,06,30,13,50,23.80
2015,06,30,13,51,23.90
2015,06,30,13,52,23.90
2015,06,30,13,53,24.00
2015,06,30,13,54,24.10
2015,06,30,13,55,24.20
2015,06,30,13,56,24.20
2015,06,30,13,57,24.30
2015,06,30,13,58,24.40
2015,06,30,13,59,24.40
2015,06,30,14,00,24.50
2015,06,30,14,01,24.50
2015,06,30,14,02,24.50
2015,06,30,14,03,24.50
2015,06,30,14,04,24.50
2015,06,30,14,05,24.50
2015,06,30,14,06,24.50
2015,06,30,14,07,24.50
2015,06,30,14,08,24.50
2015,06,30,14,09,24.60
2015,06,30,14,10,24.60
2015,06,30,14,11,24.70
2015,06,30,14,12,24.70
2015,06,30,14,13,24.50
2015,06,30,14,14,24.50
2015,06,30,14,15,24.60
2015,06,30,14,16,24.60
2015,06,30,14,17,24.70
2015,06,30,14,18,24.70
2015,06,30,14,19,24.70
2015,06,30,14,20,24.70
2015,06,30,14,21,24.70
2015,06,30,14,22,24.70
2015,06,30,14,23,24.60
2015,06,30,14,24,24.60
2015,06,30,14,25,24.50
2015,06,30,14,26,24.30
2015,06,30,14,27,24.30
2015,06,30,14,28,24.40
2015,06,30,14,29,24.50
2015,06,30,14,30,24.60
2015,06,30,14,31,24.50
2015,06,30,14,32,24.50
2015,06,30,14,33,24.50
2015,06,30,14,34,24.60
2015,06,30,14,35,24.60
2015,06,30,14,36,24.60
2015,06,30,14,37,24.70
2015,06,30,14,38,24.70
2015,06,30,14,39,24.80
2015,06,30,14,40,24.80
2015,06,30,14,41,24.80
2015,06,30,14,42,24.70
2015,06,30,14,43,24.70
2015,06,30,14,44,24.60
2015,06,30,14,45,24.60
2015,06,30,14,46,24.60
2015,06,30,14,47,24.70
2015,06,30,14,48,24.80
2015,06,30,14,49,25.00
2015,06,30,14,50,25.10
2015,06,30,14,51,25.10
2015,06,30,14,52,25.10
2015,06,30,14,53,25.10
2015,06,30,14,54,25.10
2015,06,30,14,55,25.10
2015,06,30,14,56,25.00
2015,06,30,14,57,24.80
2015,06,30,14,58,24.70
2015,06,30,14,59,24.70
2015,06,30,15,00,24.70
2015,06,30,15,01,24.70
2015,06,30,15,02,24.60
2015,06,30,15,03,24.60
2015,06,30,15,04,24.60
2015,06,30,15,05,24.60
2015,06,30,15,06,24.60
2015,06,30,15,07,24.70
2015,06,30,15,08,24.80
2015,06,30,15,09,24.80
2015,06,30,15,10,24.90
2015,06,30,15,11,24.90
2015,06,30,15,12,25.00
2015,06,30,15,13,25.00
2015,06,30,15,14,25.00
2015,06,30,15,15,25.00
2015,06,30,15,16,25.00
2015,06,30,15,17,25.00
2015,06,30,15,18,25.00
2015,06,30,15,19,24.90
2015,06,30,15,20,24.90
2015,06,30,15,21,24.80
2015,06,30,15,22,24.80
2015,06,30,15,23,24.90
2015,06,30,15,24,24.90
2015,06,30,15,25,25.00
2015,06,30,15,26,25.00
2015,06,30,15,27,25.10
2015,06,30,15,28,25.10
2015,06,30,15,29,25.10
2015,06,30,15,30,25.10
2015,06,30,15,31,25.20
2015,06,30,15,32,25.20
2015,06,30,15,33,25.20
2015,06,30,15,34,25.10
2015,06,30,15,35,25.10
2015,06,30,15,36,25.20
2015,06,30,15,37,25.20
2015,06,30,15,38,25.30
2015,06,30,15,39,25.40
2015,06,30,15,40,25.50
2015,06,30,15,41,25.60
2015,06,30,15,42,25.60
2015,06,30,15,43,25.70
2015,06,30,15,44,25.80
2015,06,30,15,45,25.80
2015,06,30,15,46,25.80
2015,06,30,15,47,25.80
2015,06,30,15,48,25.80
2015,06,30,15,49,25.70
2015,06,30,15,50,25.70
2015,06,30,15,51,25.60
2015,06,30,15,52,25.60
2015,06,30,15,53,25.60
2015,06,30,15,54,25.60
2015,06,30,15,55,25.60
2015,06,30,15,56,25.60
2015,06,30,15,57,25.50
2015,06,30,15,58,25.50
2015,06,30,15,59,25.50
2015,06,30,16,00,25.50
2015,06,30,16,01,25.60
2015,06,30,16,02,25.50
2015,06,30,16,03,25.40
2015,06,30,16,04,25.40
2015,06,30,16,05,25.40
2015,06,30,16,06,25.40
2015,06,30,16,07,25.40
2015,06,30,16,08,25.50
2015,06,30,16,09,25.40
2015,06,30,16,10,25.40
2015,06,30,16,11,25.40
2015,06,30,16,12,25.30
2015,06,30,16,13,25.40
2015,06,30,16,14,25.40
2015,06,30,16,15,25.30
2015,06,30,16,16,25.30
2015,06,30,16,17,25.20
2015,06,30,16,18,25.10
2015,06,30,16,19,25.10
2015,06,30,16,20,25.00
2015,06,30,16,21,25.00
2015,06,30,16,22,24.90
2015,06,30,16,23,25.00
2015,06,30,16,24,25.10
2015,06,30,16,25,25.20
2015,06,30,16,26,25.50
2015,06,30,16,27,25.60
2015,06,30,16,28,25.80
2015,06,30,16,29,25.90
2015,06,30,16,30,25.90
2015,06,30,16,31,25.90
2015,06,30,16,32,25.90
2015,06,30,16,33,25.90
2015,06,30,16,34,25.80
2015,06,30,16,35,25.80
2015,06,30,16,36,25.80
2015,06,30,16,37,25.80
2015,06,30,16,38,25.80
2015,06,30,16,39,25.80
2015,06,30,16,40,25.80
2015,06,30,16,41,25.80
2015,06,30,16,42,25.80
2015,06,30,16,43,25.80
2015,06,30,16,44,25.80
2015,06,30,16,45,25.90
2015,06,30,16,46,26.00
2015,06,30,16,47,26.10
2015,06,30,16,48,26.20
2015,06,30,16,49,26.20
2015,06,30,16,50,26.20
2015,06,30,16,51,26.10
2015,06,30,16,52,26.10
2015,06,30,16,53,25.90
2015,06,30,16,54,25.90
2015,06,30,16,55,25.90
2015,06,30,16,56,25.70
2015,06,30,16,57,25.70
2015,06,30,16,58,25.60
2015,06,30,16,59,25.60
2015,06,30,17,00,25.60
2015,06,30,17,01,25.60
2015,06,30,17,02,25.50
2015,06,30,17,03,25.50
2015,06,30,17,04,25.60
2015,06,30,17,05,25.60
2015,06,30,17,06,25.70
2015,06,30,17,07,25.80
2015,06,30,17,08,25.80
2015,06,30,17,09,25.80
2015,06,30,17,10,25.80
2015,06,30,17,11,25.80
2015,06,30,17,12,25.80
2015,06,30,17,13,25.80
2015,06,30,17,14,25.80
2015,06,30,17,15,25.80
2015,06,30,17,16,25.90
2015,06,30,17,17,25.90
2015,06,30,17,18,25.90
2015,06,30,17,19,25.80
2015,06,30,17,20,25.70
2015,06,30,17,21,25.60
2015,06,30,17,22,25.60